Voltar ao catálogo

COSMOS 2251 DEB

AtivoLEO
NORAD 34546·DEBRIS·🇷🇺 Russia

Lançado Jun 16, 1993 de Plesetsk Cosmodrome

Loading…

Próximas Passagens (próximas 24 horas)

TLE

AtualizadoSource: Space-Track

Época: Sep 14, 2026, 17:42 UTC

1 34546U 93036UG  26257.73754593  .00000955  00000-0  27257-3 0  9993
2 34546  74.0279  94.0708 0021128 105.3699  20.9461 14.46393480920159

Acompanhe COSMOS 2251 DEB em tempo real com AllMySat

Download on the App Store